Location: Alvis C Story Elementary School
(33.0968°N, 96.6364°W)
Time: 07:52:12
(UTC+00:00)

Cosmos 1602 - Pass Details

Date: 07 July 2022
Orbit: 509 x 526 km, 82.5° (Epoch: 14 August)

Event Time Altitude Azimuth Distance (km) Brightness Sun altitude
Exits shadow 07:42:59 12° 65° (ENE) 1,624 6.7 -31.8°
Drops below altitude 10° 07:43:33 10° 57° (ENE) 1,728 6.9 -31.7°
Sets 07:46:34 0° 31° (NNE) 2,621 8.4 -31.5°
